Theta_e
342 342 342 342 343 344 343 342 341 341 341 341 341 341 339 338 338 338 339 341 341 341 341 341 340 338 338 336 335 334 335 337 337 335 334 336 340 342 343 344 344 344 344 344 343 342 341 341 340 340 340 340 340 339 338 336 335 334 333 333 334 333 333 333 332 332 331 331 332 333 333 333 334 332 331 330 330 331 332 333 334 333 333 333 333
343 343 342 342 342 343 343 342 341 340 339 339 340 340 338 338 339 340 341 342 342 342 341 342 343 342 341 339 338 337 337 339 338 336 334 334 336 340 342 343 344 344 344 344 343 341 340 341 341 340 339 339 340 339 339 338 337 335 333 333 334 334 333 333 333 332 332 331 331 331 333 333 333 333 333 331 331 331 332 333 333 332 332 333 333
344 343 341 341 342 342 342 341 340 339 338 337 338 339 339 340 342 343 343 343 344 344 343 344 344 344 343 340 339 339 339 339 337 336 335 335 334 335 338 341 343 344 344 345 344 342 342 342 342 341 340 340 340 339 340 339 339 338 336 334 333 334 335 334 333 333 333 332 331 330 331 332 333 334 333 332 332 332 332 332 333 332 331 333 333
346 344 342 342 342 341 340 339 338 338 338 339 341 342 342 343 344 345 344 344 344 344 345 345 344 344 343 341 339 338 338 338 336 335 335 336 336 335 335 338 341 343 343 344 344 343 343 343 342 342 341 341 341 340 340 340 340 340 339 337 335 334 335 335 334 334 334 333 332 331 330 331 333 334 334 333 332 332 332 332 333 332 332 333 334
345 345 345 345 345 344 343 343 343 343 342 343 343 343 343 344 344 344 344 343 342 344 345 344 344 345 344 342 339 337 337 337 337 337 337 337 338 338 337 338 339 341 342 342 343 342 341 342 343 343 343 343 342 341 341 341 341 341 341 341 339 337 335 335 335 335 335 334 334 333 332 331 331 332 333 333 333 332 332 332 333 332 332 334 335
345 346 347 347 347 347 347 347 346 345 345 344 343 342 341 340 339 337 337 336 336 339 341 341 343 344 345 343 340 338 337 337 338 338 338 337 337 337 336 335 337 339 340 341 342 342 340 340 341 342 342 343 343 343 342 341 341 341 341 341 342 340 338 337 336 336 336 335 334 334 333 332 331 331 331 332 332 332 332 333 333 332 333 334 335
347 347 347 348 347 347 347 347 345 344 342 340 337 335 334 333 331 331 331 330 330 331 335 338 341 344 344 343 340 337 336 336 336 336 335 335 334 333 331 331 332 336 339 340 341 342 342 340 341 341 342 342 343 343 343 342 342 341 340 340 341 342 341 340 338 337 336 336 335 334 334 334 333 332 331 331 331 331 332 333 333 333 333 334 335
348 348 347 348 348 348 348 345 342 339 336 334 331 329 328 328 328 329 330 331 331 331 334 338 341 343 343 341 338 336 335 335 335 335 334 334 333 333 331 329 329 332 335 337 338 340 341 341 340 340 341 341 342 343 343 344 344 342 341 340 340 341 340 340 339 339 338 337 336 335 335 334 334 334 333 332 332 331 332 332 333 333 333 333 334
348 349 348 348 348 347 345 340 335 333 331 330 329 328 327 328 330 332 333 333 333 333 336 338 340 341 340 339 337 336 336 336 336 336 335 335 335 335 333 331 330 331 333 335 336 337 338 339 339 340 341 342 343 342 342 343 343 342 341 341 341 341 340 340 339 340 340 339 338 337 335 335 334 334 334 334 333 333 332 333 333 333 333 333 333
348 349 348 347 345 342 339 336 332 331 330 330 329 328 328 329 331 333 334 334 335 336 337 337 337 337 337 337 336 336 336 337 337 337 336 336 336 336 336 335 335 335 335 336 335 336 337 337 338 339 341 342 343 343 342 342 341 340 341 342 342 342 342 341 340 340 340 340 341 340 337 336 335 334 334 334 334 333 333 333 333 333 333 332 333
347 347 346 344 341 338 337 334 332 331 330 329 327 326 326 327 329 332 333 334 334 336 337 337 336 335 335 336 336 337 337 338 337 337 336 336 335 335 336 336 338 338 339 339 338 338 339 339 339 339 340 341 342 343 342 340 340 341 341 342 343 343 343 342 342 341 341 340 341 341 340 338 336 334 333 334 334 334 333 333 334 333 333 332 332
345 345 344 341 337 336 335 332 331 329 326 325 323 324 326 327 329 331 331 331 332 335 337 337 336 335 335 336 337 338 338 337 337 336 335 334 335 335 336 337 338 337 338 339 339 339 340 341 341 340 340 341 341 341 340 340 341 342 341 341 343 343 343 343 343 343 343 341 340 341 341 340 339 336 333 332 333 334 334 333 333 333 333 333 332
343 342 340 337 335 334 332 330 328 325 323 323 322 324 328 329 330 331 331 331 332 335 337 337 336 336 336 337 337 338 337 336 335 334 334 335 337 337 337 336 335 334 335 336 337 338 339 340 340 341 341 341 341 341 341 341 342 342 341 341 342 342 342 343 343 343 343 343 342 342 341 340 341 340 337 333 331 332 333 334 333 332 332 332 332
341 339 337 335 334 332 330 330 327 325 325 325 324 325 329 331 332 333 334 334 335 336 337 337 338 338 338 337 336 336 336 335 334 335 336 337 336 335 333 333 332 333 333 334 334 335 337 338 338 338 338 338 340 341 341 341 341 341 341 341 341 342 342 343 343 342 343 343 344 343 342 341 341 341 341 338 333 331 330 332 333 333 332 332 332
338 337 335 335 334 332 333 332 329 330 329 326 327 329 331 333 334 335 335 335 337 337 337 338 339 339 337 336 335 334 334 334 335 337 337 335 334 333 333 333 333 332 332 332 332 332 333 334 334 334 334 335 336 338 340 341 341 341 342 342 342 343 342 342 343 343 344 345 344 344 343 342 341 341 341 341 339 335 331 330 330 332 332 332 332
337 336 335 335 335 335 335 332 332 334 330 325 329 332 330 331 332 333 334 334 336 336 337 337 337 337 336 335 335 333 334 335 335 335 334 334 334 334 334 333 333 332 331 331 331 331 331 331 331 331 331 332 333 335 336 338 339 339 340 340 341 343 343 343 343 344 345 345 344 344 343 342 342 341 340 341 342 341 337 332 329 329 330 331 332
335 335 334 334 335 336 335 335 335 333 325 324 329 330 327 327 328 330 332 333 333 334 335 335 335 335 334 334 333 333 334 334 333 333 334 333 333 333 332 332 332 331 331 330 330 330 330 330 329 330 330 330 331 331 332 333 334 335 336 337 338 340 342 342 343 343 343 343 342 343 343 343 342 341 341 341 341 342 341 337 334 331 329 329 330
334 333 333 333 334 334 334 335 332 326 323 327 329 327 325 325 326 328 328 329 330 330 331 332 333 333 333 333 333 333 334 333 333 333 332 331 331 331 331 331 330 329 328 327 327 326 327 327 327 328 328 329 329 329 329 330 330 331 332 334 336 338 339 340 340 341 341 342 342 343 343 342 342 342 341 341 342 342 342 341 339 337 334 332 329
333 332 332 331 332 332 331 329 325 323 326 329 327 325 324 323 325 326 326 327 327 327 328 330 331 331 331 332 332 333 333 333 332 332 330 329 329 329 328 327 327 325 323 323 323 323 323 323 324 325 326 326 327 327 328 329 329 329 330 332 334 336 337 338 339 339 340 341 342 342 343 342 343 342 341 341 342 342 342 341 341 340 339 338 335
332 330 329 328 328 327 324 322 322 325 328 328 325 324 323 323 325 325 327 327 328 328 328 328 329 329 330 330 331 331 331 331 331 331 331 330 327 326 325 324 323 322 321 320 320 320 320 320 320 321 321 322 324 325 326 327 328 329 330 331 332 334 335 336 337 338 338 340 341 341 342 343 343 342 342 342 342 341 341 341 342 342 341 341 340
330 327 325 323 322 322 320 320 324 326 326 325 324 323 324 325 326 327 328 328 327 327 327 328 329 329 329 329 329 330 330 330 330 330 330 328 326 324 324 323 323 321 320 319 319 318 318 318 318 318 318 318 319 321 322 324 325 326 328 329 330 331 332 333 334 335 336 338 339 340 341 342 343 343 344 344 343 342 341 342 342 343 343 342 342
328 325 323 321 320 322 322 322 325 326 325 324 325 325 326 327 328 329 328 327 326 326 327 327 328 328 329 328 328 329 329 330 330 328 327 326 324 324 323 322 322 321 319 319 318 316 316 316 316 316 316 316 317 317 318 320 321 322 323 325 326 328 330 331 332 333 334 335 336 338 339 341 343 343 343 343 343 343 343 343 343 343 343 342 343
327 325 323 321 321 322 322 323 325 325 324 325 325 326 327 328 328 328 326 326 326 326 327 327 327 328 328 328 328 328 328 328 328 326 325 325 325 324 322 321 320 320 319 318 317 315 315 315 315 315 315 315 315 315 315 316 317 318 319 320 321 323 325 328 330 331 333 333 334 336 338 339 341 342 342 343 343 343 344 343 343 343 343 342 343
324 323 322 321 321 321 321 323 325 325 325 325 325 326 326 326 327 326 325 326 326 326 326 326 326 327 327 327 327 326 326 326 326 326 325 326 325 324 322 320 320 319 318 318 316 315 315 315 315 315 315 315 314 314 314 314 314 315 316 317 318 319 320 322 324 327 330 333 334 334 335 337 338 340 341 342 343 344 344 344 344 344 343 343 343
319 320 320 320 320 320 320 323 324 325 325 325 325 325 325 325 326 325 325 325 326 326 325 325 325 326 326 326 326 326 325 325 325 325 325 325 324 322 321 321 321 320 319 318 317 316 316 317 317 317 317 317 317 316 316 315 314 314 314 315 316 317 318 319 320 321 324 328 331 333 334 335 335 336 338 340 341 342 343 344 345 345 344 343 343
317 319 321 322 321 320 322 323 324 325 325 325 325 325 324 325 325 325 325 325 325 325 324 325 324 325 325 325 326 326 325 324 324 325 325 324 323 322 322 322 321 320 319 318 317 317 317 317 318 319 319 319 319 319 318 317 315 314 313 313 314 315 317 318 318 319 320 322 324 328 331 333 334 334 335 336 337 338 340 342 344 344 345 345 343
317 319 321 321 320 321 322 323 324 325 325 325 324 324 323 324 324 324 324 324 325 324 324 324 324 324 325 325 325 325 325 324 324 325 325 324 322 322 322 322 321 321 319 318 318 317 317 318 318 319 319 320 320 320 320 319 317 315 314 313 313 314 315 316 317 318 319 319 320 322 324 328 331 333 334 335 335 336 337 339 342 343 345 345 344
318 318 319 319 320 321 322 323 324 325 325 324 324 323 323 322 323 323 323 323 324 324 324 324 324 324 324 325 325 325 325 324 324 324 324 324 322 322 322 322 322 320 319 318 318 317 317 318 318 319 319 319 320 320 320 320 318 316 314 313 313 313 314 315 316 317 317 318 319 320 321 323 326 329 332 334 335 336 336 336 337 340 343 344 345
317 318 317 317 319 322 322 323 324 325 325 324 324 323 323 323 322 322 322 322 323 324 324 324 324 324 325 325 325 325 325 324 324 324 324 324 323 323 323 323 322 321 318 317 318 318 317 318 318 318 319 320 320 320 321 320 319 316 314 313 313 314 314 315 316 317 317 318 318 319 320 321 322 324 327 331 333 334 335 335 335 336 338 341 344
317 317 317 317 320 322 322 323 324 324 323 322 322 321 321 321 321 321 321 322 322 323 324 325 325 326 326 326 326 326 325 325 325 325 325 325 324 324 324 324 323 322 319 317 317 318 318 318 319 319 319 320 320 321 321 321 320 318 315 314 314 315 315 315 316 317 317 317 318 318 319 320 321 322 324 326 330 333 334 335 335 335 335 338 341
317 317 318 319 320 320 322 322 320 319 320 320 321 321 321 322 322 322 323 323 323 324 325 326 327 327 327 327 327 326 327 327 328 329 328 327 327 326 326 325 324 324 321 317 316 319 319 318 319 319 319 319 320 321 321 322 322 320 317 315 315 315 316 315 315 316 316 316 317 318 319 320 320 322 323 324 326 330 333 334 335 335 334 335 338
317 318 319 319 319 320 322 320 318 320 323 324 325 326 326 327 326 326 327 327 326 326 326 327 327 328 328 328 328 328 328 328 329 330 330 330 329 328 327 327 326 325 323 319 317 319 320 318 318 319 319 319 320 321 322 323 323 322 318 316 316 316 316 315 315 315 315 316 317 318 319 320 320 321 322 324 325 327 331 334 335 335 335 335 336
318 319 319 319 321 324 324 321 321 325 327 327 328 328 328 329 329 329 329 329 328 328 327 327 327 327 328 328 328 329 329 329 329 329 328 328 329 329 328 328 328 327 326 324 321 320 321 320 319 320 320 321 322 322 323 324 323 322 319 317 316 316 316 315 315 315 316 316 316 317 318 319 320 321 321 323 325 325 328 332 334 335 335 335 335
319 321 320 321 325 327 326 325 325 327 328 328 328 328 328 329 329 329 329 329 329 329 328 327 327 328 328 328 328 328 329 329 328 327 326 326 327 327 327 327 327 326 326 327 326 324 324 323 323 323 322 322 323 323 323 324 323 321 319 317 317 316 315 315 316 316 316 316 316 316 317 318 319 321 321 322 324 325 326 329 333 335 335 335 336
321 322 323 325 328 327 327 327 327 328 328 329 329 329 329 329 329 329 329 329 329 329 329 328 328 329 329 329 328 328 329 329 328 326 326 325 325 324 324 324 324 324 324 327 327 327 326 325 323 323 323 323 324 324 324 323 321 319 318 317 317 316 315 316 316 316 316 316 317 316 317 317 318 320 320 321 323 325 325 327 331 334 335 335 335
321 324 325 327 328 328 328 327 327 327 328 328 328 329 329 329 329 329 329 329 329 329 329 328 328 329 329 328 326 326 328 328 328 327 326 324 323 322 321 321 322 322 323 326 327 326 326 326 324 323 324 325 325 325 324 322 319 318 317 317 318 316 316 316 316 316 316 316 317 317 317 317 318 318 319 320 322 324 325 326 328 332 334 334 334
322 325 326 327 328 328 328 327 327 327 327 328 328 329 329 329 329 328 328 329 328 327 327 328 328 329 329 327 324 323 325 326 327 327 326 325 323 321 321 321 321 321 322 325 326 326 326 326 325 325 325 326 325 323 321 320 318 317 317 318 318 317 316 316 316 316 317 317 317 317 317 318 318 318 318 319 321 323 325 325 327 330 333 334 334
321 325 327 327 327 327 328 327 327 327 327 328 329 329 329 329 328 328 329 328 327 326 326 327 328 328 328 326 324 323 323 324 325 326 326 325 323 322 322 322 321 322 322 323 324 325 325 325 325 324 324 324 323 321 319 318 317 317 318 319 317 316 315 316 316 316 316 317 317 317 318 318 318 319 319 319 320 322 324 325 326 328 331 333 333
321 324 325 324 323 325 328 328 327 327 327 328 328 328 327 327 327 328 328 326 325 325 325 326 326 327 327 326 326 324 324 323 324 325 325 325 324 324 324 324 323 322 322 321 322 322 323 322 322 322 322 321 320 319 317 316 316 317 319 319 318 316 316 316 316 316 316 316 316 316 316 317 318 319 319 319 319 321 323 325 326 328 330 332 333
322 322 322 321 320 324 328 327 326 326 327 327 327 325 325 326 326 326 326 324 324 324 324 324 325 325 326 326 326 325 324 323 323 324 325 325 325 325 325 325 324 323 322 321 321 321 321 321 320 320 320 319 319 317 316 315 317 319 320 319 318 316 316 316 316 316 316 316 316 316 316 316 317 319 320 320 319 321 323 326 327 328 330 331 332
322 322 320 320 320 324 327 326 324 325 327 326 324 323 324 324 324 324 323 323 324 324 324 324 324 324 325 325 325 324 323 323 323 324 326 326 326 326 326 326 325 324 322 321 321 321 322 321 320 319 319 319 317 317 316 316 318 320 320 319 318 316 316 316 316 316 316 316 315 316 315 316 317 319 320 320 320 320 322 325 327 328 330 332 332
323 325 323 320 321 324 326 325 324 325 326 324 323 323 324 323 322 322 322 323 325 326 326 326 325 325 326 326 325 325 325 324 323 322 324 325 325 325 325 326 326 325 323 322 321 322 322 321 320 319 319 318 317 316 317 317 319 320 320 319 318 316 316 317 317 316 316 315 315 315 315 316 317 319 320 320 320 320 321 325 328 329 330 332 333
325 326 324 321 322 324 325 324 323 325 326 324 323 324 324 324 323 323 323 325 326 328 328 328 328 328 328 327 327 327 328 327 325 323 322 322 322 322 323 325 326 325 324 322 322 322 322 321 320 320 319 318 318 318 318 319 320 320 320 320 318 317 317 317 316 316 316 315 315 315 315 316 317 319 320 320 321 321 320 323 328 330 331 332 333
325 324 323 322 322 324 324 323 324 326 326 324 324 325 326 327 328 328 327 327 327 328 329 330 330 329 328 327 327 327 328 328 328 326 325 323 321 320 321 323 324 325 324 323 322 322 322 322 320 319 319 320 320 320 319 320 320 321 320 319 318 318 317 317 316 315 315 315 315 316 316 317 318 319 320 321 321 321 321 322 325 329 331 332 333
325 322 322 321 322 325 326 325 325 327 327 326 326 327 329 331 331 331 330 329 329 329 329 329 329 329 328 327 326 326 327 328 328 328 327 325 321 320 320 322 323 324 324 323 322 323 322 322 321 320 320 321 322 321 320 320 320 320 320 319 319 318 318 317 316 315 315 315 316 316 317 318 318 319 320 321 321 321 321 321 323 327 330 332 334
323 321 321 321 324 327 327 327 327 328 328 327 326 328 330 333 333 333 331 329 329 328 327 328 328 328 327 326 326 326 327 327 328 328 326 323 321 320 320 321 322 323 324 323 322 323 323 322 322 321 320 321 322 321 320 320 320 320 319 319 319 318 318 317 317 316 316 315 315 317 318 318 319 319 320 321 321 321 322 322 322 325 328 332 334
322 320 321 322 326 328 329 328 328 328 328 327 326 329 331 334 335 334 331 329 329 328 327 327 326 325 324 324 325 326 326 326 326 326 324 321 320 320 320 320 322 323 323 323 323 323 323 322 321 321 321 321 321 320 320 320 319 318 318 319 320 319 318 317 317 316 315 315 316 317 318 318 318 319 320 320 321 321 322 322 322 324 327 331 333
321 320 321 322 325 328 329 329 328 328 327 327 328 331 333 335 335 333 331 330 330 329 328 327 326 324 322 323 324 325 325 326 326 324 322 321 321 320 320 320 321 321 321 322 323 323 323 322 321 321 321 321 320 320 319 320 319 319 319 320 320 320 319 317 316 315 315 315 316 317 318 319 319 319 320 321 321 321 322 322 323 323 326 330 333
323 320 320 321 324 327 329 328 327 328 328 327 330 333 334 334 333 332 331 330 329 328 327 327 325 323 322 323 323 324 325 325 324 323 321 321 321 321 321 321 321 320 320 321 322 322 322 321 321 321 321 320 319 319 320 320 320 320 321 320 320 320 319 317 316 315 315 316 317 317 318 319 319 320 320 321 321 322 322 323 323 323 325 329 332
326 321 320 320 323 327 330 329 330 330 328 328 332 334 334 333 332 331 331 330 329 328 326 326 325 323 322 322 322 324 324 324 323 322 322 322 321 321 321 321 320 320 320 320 321 321 321 321 321 320 320 319 319 319 319 320 320 320 320 319 319 319 319 317 315 315 316 316 316 317 318 319 319 320 320 321 322 322 323 323 323 324 324 328 332
324 321 321 321 324 328 331 332 332 331 330 331 333 334 333 332 331 330 330 329 328 327 326 325 324 322 321 322 323 324 324 323 322 322 321 320 320 320 320 320 320 320 321 321 321 321 321 321 320 319 319 319 319 319 320 320 320 319 318 317 317 318 318 317 315 316 317 316 316 317 318 318 319 320 321 322 323 323 323 323 324 324 324 327 332
Wind_Speed
8 7 8 8 7 8 8 8 7 7 8 9 10 11 11 11 11 10 10 10 9 9 9 9 10 12 12 11 11 10 11 11 10 10 8 7 6 6 7 7 9 10 11 12 12 11 11 12 12 12 14 15 17 17 15 13 13 14 15 15 16 15 14 14 13 13 14 14 14 13 13 13 12 12 12 12 11 11 11 10 10 9 9 8 8
8 8 9 8 8 9 10 10 9 10 11 12 12 13 14 14 13 12 12 12 11 10 11 10 10 11 13 13 13 12 13 13 12 11 10 8 7 6 6 6 7 8 9 10 11 10 10 11 13 13 14 15 17 18 17 16 15 14 14 15 16 16 15 15 14 14 14 14 14 15 14 14 13 13 13 13 12 12 11 11 11 11 10 9 9
9 9 9 9 9 10 11 11 12 13 14 14 15 15 14 14 14 13 13 13 12 11 12 11 9 10 12 13 13 12 13 13 13 11 11 9 8 7 7 7 7 7 7 8 9 9 10 12 13 14 14 15 16 17 17 17 17 16 15 14 16 17 16 16 15 15 14 14 14 15 15 15 15 14 14 14 13 13 12 12 12 12 11 11 10
9 9 9 9 9 10 11 12 13 14 15 16 16 16 15 14 14 14 14 14 13 12 12 13 10 10 12 13 13 12 12 12 12 12 11 10 10 8 8 8 8 8 7 7 9 9 9 11 13 15 15 15 15 16 17 17 18 18 17 15 14 16 17 17 16 15 15 15 14 15 16 16 16 16 15 15 15 14 14 13 13 12 12 12 11
10 9 10 10 10 11 11 11 12 14 15 16 16 15 14 14 13 13 14 14 14 12 12 13 12 10 12 13 13 13 12 12 12 12 12 11 10 9 8 8 9 9 8 8 8 8 9 10 11 14 16 17 16 17 16 16 18 18 18 18 15 15 16 17 17 16 16 16 15 15 15 16 17 17 17 17 16 15 15 14 14 13 13 13 12
10 10 11 12 12 12 12 11 12 13 14 13 13 13 13 13 13 13 14 14 15 14 14 14 13 12 12 13 13 13 12 11 11 11 12 12 11 11 10 10 10 11 11 10 10 10 10 11 11 12 14 16 17 18 17 16 16 17 18 18 17 17 17 17 17 18 17 17 16 16 16 16 16 17 17 18 18 17 16 16 15 14 14 14 14
11 12 14 14 15 14 14 13 11 11 12 11 12 13 12 13 13 13 13 13 14 15 15 14 13 12 12 12 12 11 11 11 11 11 11 12 13 13 13 12 11 11 12 12 13 13 12 13 13 13 13 15 15 16 16 15 16 17 17 17 18 20 20 19 18 18 19 18 17 17 17 17 17 17 17 17 18 17 17 17 16 16 16 15 15
12 14 16 17 17 16 15 12 9 10 11 12 13 14 14 14 14 14 13 12 13 13 13 12 11 10 10 10 10 11 11 10 10 11 12 12 12 13 13 12 12 11 12 13 13 14 14 15 15 15 15 15 15 15 16 16 15 15 16 17 18 20 21 21 20 19 19 19 19 19 18 18 18 18 18 17 17 18 18 18 18 17 17 17 16
16 17 17 17 15 12 12 10 10 12 13 14 15 15 15 14 13 12 11 12 12 12 11 11 10 9 9 9 10 11 10 9 10 11 11 11 11 12 12 11 11 11 12 12 13 13 14 15 16 17 17 16 16 16 15 15 15 15 17 18 19 20 21 21 21 21 21 20 20 20 19 19 19 19 19 19 19 19 19 19 19 19 18 18 18
16 16 13 13 10 9 11 10 11 12 12 13 14 14 14 12 11 11 11 11 11 10 9 10 10 10 10 10 10 11 10 9 10 10 11 11 11 11 11 10 10 10 11 12 13 13 14 14 16 17 18 17 16 15 13 14 16 17 18 19 20 21 21 21 20 21 22 22 22 21 20 20 20 21 21 20 20 20 20 20 20 20 20 20 19
13 13 11 10 9 9 11 11 11 11 11 13 13 13 13 12 12 11 11 11 11 10 9 10 10 10 10 10 10 10 10 9 10 11 11 11 11 11 10 9 8 8 8 8 9 11 13 14 15 17 18 18 17 16 14 15 17 19 19 19 21 22 22 22 21 20 21 22 23 23 22 21 21 21 22 22 22 22 22 21 21 22 21 21 21
12 12 10 10 10 11 12 12 12 12 12 13 13 13 12 12 11 11 11 11 11 11 10 10 10 10 10 10 10 10 9 9 10 10 11 11 10 10 9 8 7 8 8 7 7 8 9 10 11 13 16 18 19 18 17 17 17 18 20 20 22 23 23 23 23 21 21 22 23 24 24 23 22 22 22 23 23 23 23 23 23 23 23 22 22
12 12 12 12 13 14 14 14 14 13 12 12 11 10 10 9 9 10 11 11 11 11 12 12 11 11 11 10 9 9 10 9 9 10 10 9 8 8 8 8 9 10 10 9 8 8 7 7 7 8 10 13 15 17 18 19 19 18 19 19 21 22 23 24 24 23 23 22 22 23 24 24 24 24 23 22 23 24 24 24 24 24 24 23 23
13 13 14 15 15 16 15 15 15 13 12 11 9 8 7 8 8 9 9 9 10 11 12 12 11 10 11 10 8 7 8 9 9 8 7 7 8 9 10 10 10 10 10 10 10 10 10 9 9 9 10 10 11 12 15 17 18 18 18 19 20 22 23 24 25 25 24 23 23 23 23 24 25 26 25 24 23 23 24 25 25 25 25 25 24
14 14 14 15 16 16 15 16 16 14 14 12 7 5 6 7 7 8 8 8 8 8 10 10 9 10 10 9 9 7 7 6 6 6 7 10 11 11 10 10 10 10 10 11 12 12 12 12 12 12 12 12 12 12 12 14 15 17 17 18 19 21 22 24 25 26 24 23 24 24 23 24 25 26 26 26 25 24 24 25 26 26 26 26 26
15 15 15 16 17 16 16 16 16 16 16 11 6 5 6 6 7 7 7 7 6 6 6 8 9 9 8 8 9 8 5 4 5 7 8 10 9 9 9 10 10 10 10 11 11 12 12 13 13 13 13 13 13 13 14 15 15 16 17 17 18 19 20 22 23 22 21 22 24 25 24 24 24 25 26 27 27 26 25 25 25 26 27 27 27
15 16 16 16 17 17 17 16 17 18 15 9 7 7 7 8 7 7 7 7 7 6 5 6 8 8 7 8 7 6 6 8 10 8 6 6 7 9 10 10 10 9 9 10 10 11 11 12 12 13 13 13 14 14 15 16 16 17 18 18 18 18 19 19 19 19 20 22 24 24 25 26 26 25 26 27 28 29 28 27 26 26 27 28 28
16 17 17 17 17 18 17 18 18 16 10 7 8 8 9 9 8 7 7 7 7 7 6 6 7 7 7 7 7 7 9 11 10 8 8 7 6 7 8 9 9 9 10 10 10 10 11 11 11 11 12 13 14 14 15 16 17 18 18 18 18 18 19 19 18 19 20 21 22 24 25 27 27 27 27 27 29 30 30 30 28 27 27 28 28
16 16 16 17 17 18 19 18 16 11 8 8 9 9 10 9 8 7 7 7 7 7 7 7 7 7 7 7 7 7 9 9 9 10 12 10 6 5 7 7 8 9 9 11 11 11 11 11 11 10 10 11 13 14 15 16 17 18 19 19 19 19 19 20 20 20 20 20 21 23 25 26 27 27 28 28 29 30 30 31 30 29 29 29 28
16 15 16 16 17 17 16 13 10 9 8 9 9 10 9 8 7 6 5 6 6 7 7 7 7 7 7 7 7 7 7 8 9 9 10 11 10 8 7 8 7 7 8 9 11 12 12 12 12 11 10 10 11 12 14 15 17 17 18 19 19 20 20 21 22 22 21 21 21 22 24 26 27 27 28 28 29 30 31 31 31 31 31 31 30
16 15 14 14 13 13 10 8 8 8 8 8 8 8 8 7 6 5 5 5 5 6 6 6 6 7 6 7 7 7 7 7 8 8 9 11 12 11 11 10 8 7 9 10 11 12 12 12 12 11 11 10 9 9 11 13 16 17 18 19 20 20 21 22 23 23 23 23 22 23 24 25 26 27 28 29 29 30 31 32 33 33 32 32 32
16 14 12 10 10 10 8 7 7 7 7 6 6 6 6 6 6 5 5 5 6 6 6 6 6 7 7 6 6 7 7 7 7 8 8 10 12 13 13 14 13 11 11 11 11 10 10 10 10 10 10 10 10 9 9 10 12 14 16 18 19 20 21 22 23 24 25 26 26 25 24 25 26 27 28 29 30 30 31 32 34 34 33 34 34
16 14 12 9 9 9 8 7 7 6 6 5 5 6 7 7 6 6 5 6 6 6 6 6 6 6 6 6 6 6 7 7 8 8 9 10 12 14 14 15 17 15 13 13 11 10 10 10 10 10 10 11 12 12 12 12 12 13 14 15 17 18 20 22 23 25 26 27 28 28 27 27 28 28 28 30 30 31 32 33 34 34 34 34 34
16 15 12 10 9 9 8 8 8 6 6 5 5 6 7 7 7 6 6 6 6 6 6 6 6 6 6 6 7 7 7 8 9 9 10 11 13 15 16 16 17 17 15 14 11 10 10 11 12 13 13 13 14 15 16 16 16 16 15 15 15 16 18 19 22 24 26 27 28 30 30 31 31 31 31 31 31 32 32 33 34 34 34 34 34
16 15 13 11 10 9 9 9 8 7 6 6 6 7 7 8 8 7 7 6 6 6 6 6 7 6 7 7 7 8 9 9 10 10 11 12 13 15 16 17 18 19 18 16 14 12 12 12 13 15 16 16 17 17 18 19 18 18 18 17 17 18 18 18 19 22 25 27 29 31 32 33 34 35 35 34 34 34 34 34 35 34 34 34 35
15 14 12 11 10 9 9 9 8 8 8 7 7 8 8 8 8 8 8 8 8 8 7 7 8 7 8 8 9 10 10 11 11 12 12 13 13 15 16 18 19 20 19 18 17 16 15 15 15 15 17 18 19 20 21 21 21 20 20 19 19 19 20 20 19 20 22 25 28 31 33 34 36 36 37 38 37 36 36 36 36 36 35 35 36
14 13 12 11 10 10 9 9 9 9 8 8 8 8 8 9 9 9 9 9 10 9 9 9 9 9 9 10 11 12 12 12 13 13 14 14 14 15 16 18 20 21 21 21 20 19 18 19 19 18 18 19 21 22 22 23 22 22 21 21 21 21 22 23 23 22 22 23 25 29 32 35 37 38 38 39 39 38 38 38 38 38 37 36 37
15 14 13 12 11 10 10 9 9 10 9 9 9 9 9 9 10 10 10 10 11 11 11 10 10 10 11 12 13 13 13 14 15 15 15 15 15 15 16 17 19 22 23 24 25 23 21 21 21 21 21 21 22 23 24 24 23 23 22 22 23 24 24 25 26 26 27 26 25 26 29 32 36 39 39 40 40 40 39 39 39 39 39 39 39
15 14 13 12 11 11 11 10 10 10 10 10 9 9 9 10 10 10 10 11 12 12 12 12 11 11 12 13 14 14 15 16 16 16 16 16 16 16 17 17 18 20 23 26 28 27 24 22 23 24 25 25 25 25 25 25 24 24 23 24 25 26 27 27 28 29 29 29 29 28 28 30 33 37 40 41 41 41 41 40 40 40 40 40 41
15 14 13 12 12 12 12 11 11 11 10 10 9 9 9 9 9 9 9 10 12 12 12 12 12 12 13 13 14 15 16 17 17 17 17 17 17 17 17 18 18 20 22 25 30 31 27 24 24 26 28 29 28 27 26 25 25 25 25 25 25 27 29 30 30 30 31 31 31 30 29 29 31 34 38 41 42 42 42 42 41 41 41 41 41
15 14 14 13 13 13 12 11 11 9 8 7 6 6 6 5 5 6 6 8 10 11 11 12 12 13 13 14 14 15 15 16 17 18 17 17 18 18 18 18 19 21 22 24 29 33 31 29 29 29 30 31 31 30 29 27 25 25 25 26 26 27 29 31 32 31 31 32 32 31 31 31 31 32 35 38 41 42 43 43 42 41 41 41 42
15 14 14 14 14 13 12 11 10 8 7 6 5 4 4 4 5 6 6 7 9 9 9 11 11 13 14 15 15 15 15 16 17 18 18 18 19 19 19 19 19 21 23 24 29 34 34 32 32 31 31 33 33 32 31 29 26 25 26 26 26 28 30 32 33 33 32 32 31 31 31 31 32 32 33 36 40 42 43 44 44 42 41 42 42
15 14 15 15 14 12 11 10 10 9 8 6 5 6 6 7 7 8 9 10 11 11 11 11 11 12 14 15 16 16 15 16 17 18 19 19 20 20 20 21 21 21 22 24 28 34 35 34 34 34 34 35 34 32 32 31 28 27 27 26 26 28 31 33 35 35 34 33 33 31 30 31 31 32 33 34 37 41 43 44 45 44 42 42 42
15 15 15 15 13 11 11 11 10 10 9 8 7 8 9 9 10 10 11 12 13 14 14 14 13 12 13 15 16 16 16 17 18 18 19 19 19 20 21 21 22 22 22 23 26 30 34 35 35 35 35 35 35 33 32 32 31 30 28 27 26 28 31 34 36 37 37 37 36 34 31 30 31 31 32 34 36 39 43 44 45 45 44 42 43
16 15 15 14 13 12 12 11 11 11 11 10 10 10 11 12 12 13 14 14 15 16 16 16 15 14 15 16 17 16 17 18 19 19 19 19 19 21 21 21 22 23 23 24 25 28 32 34 35 35 34 34 35 35 34 34 32 30 29 28 27 29 32 35 38 39 40 40 39 37 33 31 31 31 31 33 35 37 41 44 45 45 46 44 43
17 16 15 14 14 14 13 12 12 12 12 12 12 13 13 14 14 15 15 16 17 17 17 17 16 15 16 17 17 17 17 19 19 19 19 19 20 21 21 21 22 23 23 24 26 28 31 34 35 35 35 35 36 36 36 35 31 29 29 28 28 30 34 36 39 41 42 42 41 39 36 33 32 32 32 32 34 36 39 42 44 45 46 46 44
18 17 16 15 15 16 15 14 13 14 14 14 14 15 15 15 16 16 17 17 17 17 17 16 16 15 16 17 17 17 17 19 19 19 19 19 20 21 22 22 22 23 23 24 26 28 30 33 36 36 37 37 37 36 35 34 32 30 29 28 28 31 35 37 39 41 42 43 42 41 40 37 35 33 33 32 33 35 37 41 43 44 45 46 46
19 17 17 16 15 16 16 15 15 15 15 16 16 16 16 17 17 17 17 17 16 15 15 15 15 15 16 17 17 17 18 19 19 19 20 20 21 22 22 22 22 23 24 25 26 28 30 33 36 38 38 38 37 36 34 32 32 33 32 30 30 31 35 38 40 41 41 43 44 43 43 42 38 35 33 33 32 33 36 39 42 43 44 45 46
19 18 18 15 13 15 17 16 15 16 16 16 16 17 17 17 18 18 17 16 15 15 15 15 15 16 16 17 18 18 19 20 20 20 21 22 23 23 24 23 23 23 24 25 26 28 30 32 35 36 37 36 36 35 33 31 31 32 32 33 34 34 35 38 41 42 43 44 46 47 46 45 43 39 35 33 32 32 34 37 40 42 43 44 46
19 19 18 16 14 16 18 18 17 17 17 17 17 17 17 17 17 17 17 16 16 16 16 16 17 18 18 19 19 19 20 20 20 20 21 23 25 26 26 25 25 24 25 26 27 28 29 30 31 32 34 35 35 35 34 32 32 31 30 32 36 37 36 38 41 43 45 47 49 50 49 48 47 44 39 35 32 30 32 36 38 40 41 42 44
18 17 18 18 18 20 20 20 19 18 18 18 17 17 17 16 16 16 16 16 16 17 17 18 18 19 19 19 19 19 19 20 20 21 22 24 26 28 28 27 26 26 26 27 28 29 29 29 29 30 32 34 35 35 35 34 33 33 31 31 35 37 38 40 42 43 46 49 51 52 52 50 49 48 44 39 35 31 30 33 36 38 40 40 42
18 15 19 22 22 22 22 21 20 19 18 19 18 17 16 16 15 16 16 16 16 17 17 18 18 19 19 19 19 19 20 21 21 21 22 24 26 28 28 28 27 27 27 28 29 29 28 28 29 30 32 35 36 36 36 35 34 33 32 33 36 38 39 42 45 45 45 49 52 53 54 51 49 49 46 42 38 33 30 31 33 35 38 39 40
18 16 22 27 25 24 23 23 21 19 19 19 18 17 16 16 15 16 16 17 17 17 18 18 19 19 20 21 21 22 22 22 21 20 21 23 25 27 27 27 27 27 27 28 29 28 28 28 28 29 31 35 37 36 36 36 34 33 33 34 36 38 38 41 46 48 46 48 51 55 56 52 48 48 46 42 40 36 32 31 32 33 35 38 39
16 18 25 28 26 24 23 23 21 19 19 19 19 18 17 15 15 17 18 19 19 20 20 20 20 21 21 21 21 22 24 25 24 23 23 24 25 26 27 27 27 28 28 28 29 28 27 27 28 29 31 34 35 35 35 35 35 35 35 35 36 37 37 39 44 49 50 49 51 55 57 53 47 46 46 43 41 39 35 32 33 34 34 36 38
18 23 27 27 25 24 23 23 21 20 20 20 19 19 16 14 14 17 18 19 20 21 22 22 23 23 22 22 22 23 24 25 26 27 27 26 26 26 27 27 27 28 28 28 28 27 27 27 28 30 31 32 33 34 34 34 35 36 36 35 35 36 38 39 42 48 51 50 50 53 57 54 47 45 47 45 42 41 37 33 33 35 35 36 38
24 29 29 27 26 24 23 23 21 20 20 20 20 19 16 14 15 16 17 16 17 19 21 22 23 23 22 22 22 23 24 25 26 27 27 26 26 26 26 27 28 28 28 28 28 27 26 27 29 31 31 30 31 33 34 34 35 36 36 37 37 37 39 40 43 50 52 50 48 49 54 54 49 47 48 46 43 41 39 34 32 35 36 36 37
30 31 28 27 26 24 23 23 21 21 21 21 20 18 16 16 17 18 17 16 17 18 20 21 22 21 21 22 23 23 23 24 24 23 24 25 26 26 26 26 27 27 27 28 27 27 27 28 30 31 30 30 30 32 33 33 33 34 36 38 39 41 42 43 45 51 53 50 46 45 50 54 52 50 49 46 43 42 40 35 32 34 36 36 37
31 29 27 27 26 24 23 22 21 22 21 20 19 18 18 18 19 19 18 18 18 20 21 21 20 19 20 21 21 21 22 22 22 21 23 24 25 25 25 25 25 26 26 27 27 27 28 29 30 30 29 29 30 30 31 31 32 34 36 38 42 43 44 44 47 52 54 51 46 45 49 53 51 49 49 46 42 41 40 35 32 33 35 36 36
30 30 28 27 25 24 23 23 23 22 21 20 19 19 19 21 21 20 20 19 19 21 22 20 19 19 19 19 19 20 20 21 21 21 22 24 24 25 25 25 26 26 26 27 27 27 28 28 28 28 28 29 29 29 29 29 30 32 35 38 42 43 41 42 46 53 55 52 49 46 47 48 47 46 47 46 42 40 39 36 32 32 35 36 36
28 29 28 26 25 24 24 24 23 23 22 21 20 21 21 21 22 21 20 20 21 22 21 19 18 19 18 18 18 20 21 21 21 21 22 24 25 25 25 25 25 26 26 26 26 27 27 27 27 27 28 28 28 27 27 28 29 30 32 36 39 39 40 42 47 53 57 55 51 45 43 45 47 45 44 43 41 38 37 36 33 31 33 36 35
25 26 25 25 24 23 24 24 24 23 23 22 21 21 22 21 21 20 21 21 22 21 19 18 18 18 17 17 18 20 21 21 21 22 23 24 24 24 23 23 24 24 25 25 26 26 26 26 27 27 27 26 26 27 27 28 28 29 32 35 36 36 39 42 45 50 55 58 56 48 45 48 49 47 42 39 39 37 34 32 31 31 33 35 35
Wind_Direction
246 245 248 249 251 255 268 277 279 281 279 285 291 292 295 295 295 292 287 283 278 280 283 285 289 290 288 286 287 290 297 305 308 305 300 300 297 294 297 297 294 291 288 281 277 272 260 249 245 243 243 247 247 240 236 241 243 241 241 241 241 240 238 237 236 233 231 230 229 230 231 230 228 229 231 233 233 234 234 235 237 241 242 240 245
240 240 244 247 249 254 264 272 275 279 279 282 287 289 292 294 295 293 291 289 288 288 286 286 289 291 288 281 278 280 288 294 299 299 294 289 286 283 282 287 292 297 298 291 287 283 270 255 247 246 243 242 246 243 236 235 238 241 243 242 242 243 242 240 239 239 238 236 232 230 232 232 232 232 232 235 237 239 238 238 239 242 242 241 243
236 236 240 243 246 252 261 268 274 279 282 284 284 286 287 291 292 291 292 292 291 290 290 290 291 297 294 286 278 277 283 289 294 294 292 286 279 275 272 274 279 287 300 301 296 290 280 266 253 248 248 245 246 246 241 238 237 238 241 242 243 243 243 243 241 241 241 241 238 235 234 233 234 235 235 236 237 241 242 241 242 243 243 242 243
234 235 243 250 251 255 261 268 275 276 278 280 281 285 288 291 291 289 290 290 289 285 285 285 288 295 294 291 287 283 283 287 292 290 288 287 281 276 269 266 267 272 282 289 294 294 286 272 260 252 250 250 249 248 246 245 243 240 239 238 242 245 244 245 244 243 243 243 244 242 240 236 235 236 237 237 238 241 243 242 243 244 243 242 243
236 242 250 258 259 261 266 273 279 278 277 278 280 285 288 290 290 289 289 288 289 286 282 282 284 285 285 288 290 289 287 287 291 290 290 288 283 279 273 269 265 263 265 270 279 283 280 273 266 258 253 252 252 253 252 252 250 249 247 242 240 244 245 246 247 246 246 246 246 246 246 243 239 238 237 238 238 240 241 241 243 245 244 244 246
242 251 256 262 264 266 273 279 283 280 279 280 282 285 287 290 289 288 287 288 290 287 283 285 285 277 274 281 287 290 290 289 292 293 293 291 288 285 280 277 270 264 260 259 263 264 265 269 268 262 256 254 254 256 256 256 256 256 256 253 250 249 246 246 248 249 249 249 248 248 249 249 247 245 242 240 240 240 240 240 242 244 244 245 250
254 260 261 263 263 268 275 279 281 277 277 282 285 288 288 290 290 290 292 291 291 287 284 285 284 273 268 274 281 284 286 289 293 292 291 287 287 287 283 280 272 264 258 257 260 260 259 260 263 263 261 258 256 259 260 258 259 257 258 258 257 255 250 244 244 247 249 251 251 250 251 251 251 251 249 246 244 242 240 239 242 244 244 246 249
258 261 264 265 266 273 278 279 283 280 283 289 292 294 293 293 293 294 295 295 293 289 284 281 280 274 270 274 279 282 284 288 291 290 288 287 287 286 283 279 271 264 259 257 260 262 262 261 262 263 262 259 258 260 261 260 262 260 258 256 253 254 254 249 244 243 246 249 252 252 252 252 252 252 252 250 249 246 244 241 242 244 245 246 248
255 258 265 271 271 276 277 280 291 292 295 297 296 296 295 294 293 293 295 296 298 298 290 282 278 274 275 279 279 280 283 287 289 286 287 288 290 290 286 281 275 270 266 264 264 264 264 264 265 264 262 262 261 260 261 266 267 260 256 257 255 253 255 256 252 246 245 246 249 251 253 253 253 254 253 252 251 250 249 247 245 245 245 246 249
257 265 272 274 272 276 281 292 301 301 301 297 295 294 291 291 289 291 294 297 302 303 295 286 279 274 274 276 276 279 282 283 284 283 284 286 288 290 290 289 286 282 277 272 269 267 266 265 265 265 265 264 264 264 265 267 263 256 255 258 258 255 254 256 254 250 248 247 248 249 251 252 253 254 253 253 253 252 252 251 250 249 247 247 249
269 280 282 274 273 281 290 302 304 299 296 292 291 289 286 285 283 284 288 292 296 295 289 284 282 281 277 275 277 280 278 278 280 280 280 281 284 287 289 292 293 293 290 285 280 275 272 268 263 262 264 267 269 271 268 261 259 261 261 258 257 257 254 253 253 252 250 249 248 249 248 249 252 253 253 253 254 254 253 253 253 252 250 249 250
273 275 270 267 273 282 292 298 295 290 291 293 290 284 281 281 279 278 280 282 283 283 282 281 284 285 283 282 283 280 277 280 282 280 279 279 281 282 282 285 290 297 297 295 293 289 283 277 271 265 264 266 268 270 268 263 263 265 262 257 256 258 258 255 255 255 253 251 250 250 250 249 250 252 254 253 253 254 254 253 253 253 253 251 251
263 261 259 266 273 282 290 293 292 291 297 302 292 280 278 281 279 276 275 274 274 276 278 280 284 286 287 288 287 285 284 283 283 281 280 279 279 277 277 281 287 294 296 296 296 295 293 290 288 282 275 270 266 263 263 262 262 262 260 258 257 258 259 259 259 258 256 254 253 252 252 251 250 251 253 254 254 254 254 254 254 254 254 253 253
253 254 259 267 273 282 288 292 295 298 308 312 295 274 274 278 278 276 274 274 274 275 277 281 286 291 295 298 297 292 286 284 283 275 271 279 288 288 286 287 289 292 297 301 303 301 299 297 296 294 290 284 275 266 260 259 259 259 258 258 258 258 259 260 259 258 257 256 257 255 253 253 253 253 253 254 256 256 255 255 255 255 255 254 254
251 256 263 268 275 282 286 292 296 300 309 310 293 273 274 276 278 278 277 280 282 280 282 285 290 296 301 306 309 310 298 285 271 259 270 287 294 293 292 295 298 299 301 302 303 303 303 302 299 296 293 289 283 275 267 263 262 262 262 262 261 260 260 259 258 259 260 261 261 260 258 256 256 256 255 254 255 257 258 257 255 254 254 255 255
254 262 267 270 275 279 284 289 291 296 303 300 286 287 287 284 283 284 287 290 292 289 288 288 291 298 306 311 317 320 314 294 285 281 283 288 291 295 298 303 306 306 306 304 302 302 301 301 300 298 296 291 286 280 274 269 266 266 266 267 267 265 264 262 261 262 264 265 263 261 259 257 256 256 255 254 255 255 256 257 256 255 254 254 255
259 264 267 270 273 276 280 283 286 292 294 287 283 291 294 295 293 293 296 296 297 299 294 291 294 303 309 310 313 317 312 315 316 309 298 294 294 295 299 305 312 315 313 311 309 307 304 302 301 299 297 294 291 286 281 275 272 269 268 268 269 269 268 268 269 267 263 262 261 260 259 257 255 254 254 254 254 254 254 255 256 257 257 255 254
258 260 263 266 269 273 276 279 284 287 282 275 283 289 294 298 295 294 297 297 300 301 298 297 299 304 308 306 303 300 305 314 319 315 311 311 305 300 304 309 317 323 323 320 319 317 315 311 307 304 300 297 295 291 287 283 279 276 273 270 268 268 268 269 271 267 262 260 259 259 259 257 255 254 253 254 254 255 255 255 255 256 257 257 256
257 259 260 261 263 266 271 275 277 272 263 269 278 283 288 289 286 288 292 294 297 298 299 300 302 305 307 305 301 297 300 306 309 312 314 317 320 320 317 318 324 326 323 321 322 321 321 321 317 312 305 298 296 293 292 289 286 283 279 276 272 271 270 270 269 267 266 264 261 259 258 256 256 255 254 253 254 254 254 254 254 254 256 257 257
262 264 263 260 259 260 263 264 255 244 248 259 266 273 277 276 276 279 282 285 288 291 294 298 301 304 302 298 298 296 295 297 302 308 311 312 321 328 323 319 326 334 328 326 330 328 326 327 325 323 318 308 299 294 293 292 291 289 286 284 280 276 273 270 269 267 266 265 263 262 260 258 257 256 255 254 253 253 252 252 251 250 252 255 256
266 268 264 260 257 257 256 245 229 228 239 249 258 263 263 265 267 267 271 275 278 281 284 287 289 291 291 291 294 294 294 297 300 303 302 305 315 325 327 322 322 343 342 336 337 334 331 332 332 333 334 332 325 312 301 295 293 292 290 289 286 283 279 274 270 267 264 263 262 260 259 258 257 256 256 256 255 253 251 251 250 250 251 252 254
268 271 267 261 253 253 252 234 218 222 233 242 247 250 255 258 256 256 265 271 275 276 275 276 276 278 281 286 290 292 295 295 295 296 296 300 308 316 327 327 322 332 340 337 337 336 333 336 337 341 346 350 352 348 337 323 311 305 300 296 292 289 286 282 277 272 266 263 261 259 257 257 257 256 256 256 255 254 253 252 252 252 251 251 252
268 270 268 261 252 252 247 226 216 223 233 237 236 243 251 250 249 253 262 272 277 277 278 277 277 277 277 280 285 286 291 292 289 288 292 298 305 312 323 324 318 322 330 332 333 332 330 332 335 341 346 349 351 352 354 352 344 334 325 316 306 298 292 287 283 278 273 268 264 260 257 256 256 255 255 254 254 254 254 253 253 252 251 251 251
265 267 267 263 256 249 240 224 220 229 237 237 239 245 248 248 250 254 258 266 269 273 279 280 282 283 279 277 280 284 289 289 287 288 292 296 302 310 318 319 315 318 324 324 322 320 320 322 327 332 336 340 342 344 347 348 348 344 340 335 329 319 308 298 289 282 277 273 268 265 261 257 255 255 254 253 253 253 253 252 252 252 250 250 250
262 263 261 261 255 245 236 229 227 235 238 238 243 246 247 249 252 258 262 262 262 267 273 278 284 284 280 277 280 285 288 287 286 288 290 294 301 309 315 315 313 315 318 318 316 314 312 316 321 325 328 332 335 338 340 340 339 338 337 336 335 332 325 315 303 292 282 276 272 268 265 262 259 256 255 254 253 252 251 251 250 250 249 248 247
260 257 257 258 253 240 235 234 233 238 237 238 246 249 251 252 255 261 265 264 265 268 270 275 281 281 279 279 280 283 286 289 290 290 290 293 301 309 312 311 310 310 312 312 312 312 312 314 317 319 322 325 328 331 335 336 334 332 332 332 332 331 328 324 317 308 296 285 277 271 268 265 262 259 257 255 253 252 250 249 248 248 247 246 245
255 253 254 253 244 234 232 233 233 236 237 240 247 251 255 258 260 263 266 268 270 271 272 273 276 277 277 278 279 282 286 289 290 290 290 293 300 307 309 308 307 307 309 308 307 307 308 310 312 314 317 320 323 327 330 332 331 328 327 326 327 328 328 326 323 318 311 300 288 279 272 268 264 261 259 257 255 253 251 249 248 246 245 244 243
249 248 249 246 237 230 229 229 230 235 238 243 248 252 257 260 261 264 266 268 270 272 273 273 275 276 276 277 278 280 282 284 286 288 289 290 296 303 305 305 303 303 305 306 305 305 306 310 311 312 316 318 320 324 326 329 328 325 324 324 324 326 327 327 325 322 318 311 302 291 282 274 268 263 260 258 256 255 253 251 249 247 245 244 242
245 245 246 243 236 229 226 225 228 233 237 243 249 254 258 259 260 262 263 265 268 270 271 272 274 275 275 276 278 279 279 280 283 285 285 287 291 297 301 302 299 297 299 301 301 302 304 308 310 312 314 317 317 320 323 326 326 325 324 322 323 326 328 328 327 325 322 317 310 303 294 285 276 268 262 259 257 256 254 254 252 248 245 243 242
243 244 244 240 233 228 223 222 225 229 234 242 249 253 257 260 261 263 264 266 269 272 273 273 274 274 275 277 279 281 281 280 283 284 284 285 288 293 296 297 296 295 293 294 297 298 300 304 308 309 311 313 314 316 319 323 323 323 321 320 322 325 327 328 328 327 325 321 314 307 301 294 286 277 268 260 257 256 254 254 254 252 247 243 242
240 241 238 232 226 220 216 216 216 217 222 230 238 245 255 264 270 273 274 274 277 280 281 280 278 277 278 280 282 284 284 283 285 287 287 288 289 291 292 294 295 293 291 289 290 294 298 302 304 306 308 310 311 313 316 319 320 319 317 317 319 323 326 326 327 326 325 323 317 309 303 299 293 285 276 265 257 254 253 252 252 253 250 245 242
236 235 231 222 214 211 209 208 202 197 202 211 225 244 260 272 283 287 288 288 291 295 293 288 285 282 281 282 283 284 285 285 286 288 289 290 290 290 290 292 292 292 291 289 287 291 296 299 301 303 305 306 307 311 315 317 317 316 314 314 316 320 323 324 325 325 324 322 318 310 302 300 297 291 284 274 261 253 252 251 250 251 251 248 243
232 228 222 211 206 208 206 201 197 200 209 218 236 258 270 279 287 291 292 292 295 299 299 297 294 288 285 284 284 285 285 285 286 288 288 288 288 288 288 289 290 291 292 291 290 292 295 297 299 301 303 304 306 310 313 315 315 314 312 311 313 318 322 323 323 324 324 323 319 312 303 297 297 294 288 282 269 256 251 250 249 249 250 249 244
229 221 213 206 206 211 207 205 208 215 224 231 245 260 270 279 285 288 289 288 289 292 294 297 297 292 288 286 287 289 287 285 286 287 286 286 285 286 286 287 289 290 291 293 294 295 295 296 298 300 302 303 305 308 311 313 314 313 310 310 312 317 321 323 322 322 323 323 321 317 308 297 294 295 291 285 277 263 252 249 248 247 247 247 245
224 214 209 207 211 215 215 217 223 229 236 242 250 260 269 276 281 286 287 287 287 288 290 293 295 292 289 289 291 293 290 287 288 287 286 286 286 287 288 288 289 289 290 292 294 295 296 297 298 299 301 303 305 307 309 311 312 310 308 308 311 316 321 322 321 321 322 323 323 320 315 304 294 292 291 287 281 270 257 250 248 246 245 246 245
222 214 211 212 217 224 227 231 236 242 247 252 258 264 269 275 280 285 287 287 287 287 285 286 288 289 289 290 294 296 293 290 290 289 288 289 290 290 290 290 290 290 289 290 291 293 295 295 296 297 300 302 304 305 308 310 310 307 306 307 310 316 320 321 321 322 324 325 325 322 319 314 303 293 290 288 282 274 263 253 248 246 245 245 245
223 216 216 219 224 232 237 241 247 251 255 259 263 267 272 277 281 283 284 286 286 283 279 280 283 287 290 292 295 297 294 292 292 291 290 291 292 292 292 293 292 291 290 288 289 290 291 292 293 295 298 300 301 303 306 309 309 307 307 307 311 316 319 320 322 325 326 326 325 324 321 318 312 301 292 288 283 275 266 256 249 246 245 244 244
226 222 223 224 228 238 244 249 255 258 261 263 267 273 279 281 282 282 284 287 286 281 278 279 282 286 290 293 296 296 294 293 293 294 293 293 293 294 295 296 295 293 291 290 290 289 289 290 292 295 297 299 300 302 304 307 308 309 309 309 312 317 319 320 323 325 327 326 324 324 322 318 315 307 296 289 284 276 267 259 251 247 244 243 243
226 223 223 218 220 237 247 250 256 261 263 266 271 278 282 283 284 285 287 287 285 281 281 281 282 286 291 295 297 297 295 294 293 294 294 293 293 295 296 298 296 294 293 294 294 293 292 293 294 295 297 298 299 300 304 308 307 308 311 311 312 317 319 319 320 322 325 324 323 322 321 318 316 312 302 291 285 276 265 259 253 248 245 242 241
223 221 218 211 215 233 244 249 253 258 262 266 274 278 280 283 284 284 284 282 282 283 285 285 285 289 293 297 298 297 295 293 291 291 290 290 292 293 295 297 296 293 292 294 296 296 296 295 296 297 297 298 298 300 304 308 307 308 311 311 310 314 317 316 316 319 322 323 323 321 319 318 316 314 308 296 287 278 265 256 252 249 245 242 241
216 222 218 213 218 230 240 245 249 255 262 268 272 275 277 280 278 277 277 278 282 285 286 287 289 292 296 298 297 297 295 294 291 288 286 286 288 289 291 293 292 290 290 292 294 296 297 296 296 297 297 297 299 302 305 307 308 309 311 309 308 311 314 312 312 316 320 321 321 319 317 317 315 313 309 299 289 281 268 255 250 248 245 242 240
221 236 228 220 222 230 238 243 247 254 263 267 269 272 274 273 269 269 272 275 281 285 287 292 295 297 299 298 297 297 296 295 293 288 285 283 283 284 286 286 286 286 286 288 291 294 295 295 295 297 297 298 300 303 304 305 307 309 309 308 307 310 312 311 311 315 320 321 319 316 314 314 312 309 306 299 291 285 273 257 248 247 245 241 239
230 238 228 225 228 232 238 243 247 255 263 266 268 270 269 267 267 269 272 275 279 284 287 292 298 301 301 299 298 296 295 295 293 290 289 288 286 284 282 280 280 280 282 284 287 290 292 292 293 295 296 297 300 302 303 304 306 307 306 304 305 308 310 311 312 315 319 320 317 313 310 311 310 307 303 297 291 287 277 259 247 244 243 240 238
235 225 222 225 229 233 239 245 249 256 264 268 269 269 268 270 275 277 277 278 282 286 289 292 296 300 300 298 296 294 294 294 293 292 293 295 294 290 284 279 277 277 278 281 284 286 288 290 292 294 295 296 299 300 301 303 305 304 302 301 302 305 307 308 311 314 317 319 316 310 309 310 310 307 303 296 291 288 281 264 246 240 240 237 235
232 221 224 228 230 235 241 247 253 259 266 270 269 266 267 275 283 282 280 281 284 289 292 293 295 297 297 295 292 291 291 293 294 296 295 296 297 294 289 283 280 277 277 279 281 282 285 289 291 293 294 295 298 299 300 302 303 300 298 299 301 303 303 304 308 311 314 317 315 310 309 310 310 307 302 296 290 286 282 269 249 238 237 235 233
225 221 227 231 233 238 243 250 257 263 269 272 268 264 266 275 283 284 285 285 287 292 294 293 294 295 295 293 290 289 290 292 296 298 296 296 296 294 291 287 284 281 279 279 279 280 283 288 291 292 293 294 297 299 300 300 299 296 297 300 301 300 299 301 304 307 311 316 316 309 305 307 309 305 298 294 289 284 281 273 254 238 234 234 232
226 226 232 236 239 242 246 253 260 264 269 270 266 264 266 273 280 284 286 288 290 296 299 296 294 295 295 294 290 289 290 293 296 298 295 294 294 293 292 290 286 284 283 282 279 279 285 289 291 293 294 296 298 299 299 298 296 294 297 300 300 299 298 300 303 306 311 317 318 306 299 303 307 301 296 293 288 282 280 274 257 238 230 231 231
231 233 237 240 242 244 248 254 259 263 268 267 262 262 265 271 276 280 284 288 292 299 303 300 295 295 298 296 292 291 291 292 296 297 296 293 292 292 293 292 290 288 286 285 282 282 287 290 292 295 297 299 299 299 299 298 295 296 298 299 301 302 301 301 305 309 313 317 317 307 297 299 303 298 294 294 289 282 278 274 259 239 228 227 230
237 239 241 243 245 247 250 255 259 264 266 263 261 263 268 273 277 279 283 288 295 302 305 300 295 297 300 297 293 291 290 291 295 296 294 291 289 291 292 292 292 290 289 288 286 286 289 291 293 297 299 300 299 298 298 298 297 299 302 302 305 308 305 303 307 312 314 315 316 312 300 297 300 297 292 292 289 280 275 271 260 242 228 224 227
243 244 247 249 250 251 255 258 262 264 264 263 264 267 273 279 280 281 284 291 298 303 303 298 296 298 299 294 291 290 290 292 295 295 291 289 289 291 292 291 290 290 290 290 289 290 292 294 296 299 300 300 300 299 301 303 303 305 306 307 310 309 305 305 311 316 315 313 316 316 304 297 298 294 288 287 284 277 272 268 259 242 228 222 223
247 249 251 251 251 253 257 261 263 263 263 264 265 269 277 282 282 284 289 295 299 300 298 296 297 297 296 291 288 290 292 295 298 296 293 291 291 291 291 290 291 291 291 292 293 295 298 300 303 304 302 302 304 306 308 309 308 309 309 311 311 307 304 307 313 316 313 313 318 317 305 299 297 291 283 278 275 274 271 266 255 238 224 219 219